Time,TemperatureF,DewpointF,PressureIn,WindDirection,WindDirectionDegrees,WindSpeedMPH,WindSpeedGustMPH,Humidity,HourlyPrecipIn,Conditions,Clouds,dailyrainin,SoftwareType,DateUTC
2013-08-02 00:01:00,66.4,65.2,29.86,South,182,7.0,10.0,96,0.02,,---,0.07,VWS V14.01,2013-08-02 04:01:00,
2013-08-02 00:16:00,65.8,64.6,29.86,SSW,194,4.0,10.0,96,0.02,,---,0.00,VWS V14.01,2013-08-02 04:16:00,
2013-08-02 00:31:00,65.8,64.6,29.86,SSW,209,2.0,7.0,96,0.02,,---,0.00,VWS V14.01,2013-08-02 04:31:00,
2013-08-02 00:46:00,66.2,65.3,29.86,SSW,205,1.0,10.0,97,0.02,,---,0.01,VWS V14.01,2013-08-02 04:46:00,
2013-08-02 01:01:00,66.0,64.8,29.84,South,179,7.0,10.0,96,0.01,,---,0.01,VWS V14.01,2013-08-02 05:01:00,
2013-08-02 01:16:00,66.1,64.9,29.84,SSW,202,1.0,11.0,96,0.01,,---,0.01,VWS V14.01,2013-08-02 05:16:00,
2013-08-02 01:31:00,65.9,64.7,29.84,SSW,204,2.0,6.0,96,0.01,,---,0.01,VWS V14.01,2013-08-02 05:31:00,
2013-08-02 01:46:00,66.5,65.3,29.83,SSW,207,3.0,6.0,96,0.01,,---,0.01,VWS V14.01,2013-08-02 05:46:00,
2013-08-02 02:01:00,66.7,65.5,29.82,South,179,6.0,9.0,96,0.00,,---,0.01,VWS V14.01,2013-08-02 06:01:00,
2013-08-02 02:16:00,66.2,65.0,29.81,SSE,162,8.0,10.0,96,0.00,,---,0.01,VWS V14.01,2013-08-02 06:16:00,
2013-08-02 02:31:00,66.1,64.9,29.80,SSE,155,8.0,9.0,96,0.00,,---,0.01,VWS V14.01,2013-08-02 06:31:00,
2013-08-02 02:46:00,66.1,64.9,29.79,SSE,157,7.0,9.0,96,0.00,,---,0.01,VWS V14.01,2013-08-02 06:46:00,
2013-08-02 03:01:00,66.1,64.9,29.79,SSE,158,6.0,9.0,96,0.00,,---,0.01,VWS V14.01,2013-08-02 07:01:00,
2013-08-02 03:16:00,66.3,65.1,29.79,South,180,4.0,8.0,96,0.00,,---,0.01,VWS V14.01,2013-08-02 07:16:00,
2013-08-02 03:31:00,66.3,65.1,29.78,SSE,150,7.0,10.0,96,0.00,,---,0.01,VWS V14.01,2013-08-02 07:31:00,
2013-08-02 03:46:00,65.9,64.7,29.78,SSE,147,7.0,10.0,96,0.00,,---,0.01,VWS V14.01,2013-08-02 07:46:00,
2013-08-02 04:01:00,65.2,64.3,29.78,SE,138,9.0,12.0,97,0.00,,---,0.01,VWS V14.01,2013-08-02 08:01:00,
2013-08-02 04:16:00,64.6,63.4,29.78,South,169,5.0,12.0,96,0.00,,---,0.01,VWS V14.01,2013-08-02 08:16:00,
2013-08-02 04:31:00,64.2,63.0,29.78,SSW,196,8.0,11.0,96,0.00,,---,0.01,VWS V14.01,2013-08-02 08:31:00,
2013-08-02 04:46:00,64.0,62.8,29.78,South,180,7.0,11.0,96,0.00,,---,0.01,VWS V14.01,2013-08-02 08:46:00,
2013-08-02 05:01:00,64.1,62.9,29.78,SSE,155,7.0,10.0,96,0.00,,---,0.01,VWS V14.01,2013-08-02 09:01:00,
2013-08-02 05:16:00,64.2,63.3,29.78,South,188,6.0,9.0,97,0.00,,---,0.01,VWS V14.01,2013-08-02 09:16:00,
2013-08-02 05:31:00,64.2,63.0,29.78,South,191,5.0,9.0,96,0.00,,---,0.01,VWS V14.01,2013-08-02 09:31:00,
2013-08-02 05:46:00,64.3,63.4,29.78,South,186,4.0,9.0,97,0.00,,---,0.01,VWS V14.01,2013-08-02 09:46:00,
2013-08-02 06:01:00,64.6,63.7,29.78,South,176,5.0,10.0,97,0.00,,---,0.01,VWS V14.01,2013-08-02 10:01:00,
2013-08-02 06:16:00,64.7,63.8,29.78,South,174,4.0,9.0,97,0.00,,---,0.01,VWS V14.01,2013-08-02 10:16:00,
2013-08-02 06:31:00,64.6,63.4,29.78,SSE,151,8.0,9.0,96,0.00,,---,0.01,VWS V14.01,2013-08-02 10:31:00,
2013-08-02 06:46:00,64.7,63.5,29.78,SSE,153,7.0,10.0,96,0.00,,---,0.01,VWS V14.01,2013-08-02 10:46:00,
2013-08-02 07:01:00,64.8,63.6,29.78,SSE,165,5.0,10.0,96,0.00,,---,0.01,VWS V14.01,2013-08-02 11:01:00,
2013-08-02 07:16:00,65.0,63.8,29.78,SE,141,7.0,11.0,96,0.00,,---,0.01,VWS V14.01,2013-08-02 11:16:00,
2013-08-02 07:31:00,65.2,63.7,29.78,SE,138,9.0,13.0,95,0.00,,---,0.01,VWS V14.01,2013-08-02 11:31:00,
2013-08-02 07:46:00,65.2,63.7,29.79,South,179,5.0,12.0,95,0.00,,---,0.01,VWS V14.01,2013-08-02 11:46:00,
2013-08-02 08:01:00,65.4,63.9,29.80,South,182,3.0,8.0,95,0.00,,---,0.01,VWS V14.01,2013-08-02 12:01:00,
2013-08-02 08:16:00,65.2,63.4,29.78,ESE,108,6.0,10.0,94,0.00,,---,0.01,VWS V14.01,2013-08-02 12:16:00,
2013-08-02 08:31:00,65.1,63.6,29.79,ESE,107,1.0,6.0,95,0.00,,---,0.01,VWS V14.01,2013-08-02 12:31:00,
2013-08-02 08:46:00,65.5,64.0,29.79,ESE,108,4.0,6.0,95,0.00,,---,0.01,VWS V14.01,2013-08-02 12:46:00,
2013-08-02 09:01:00,65.8,64.0,29.78,SE,130,0.0,7.0,94,0.00,,---,0.01,VWS V14.01,2013-08-02 13:01:00,
2013-08-02 09:16:00,66.1,64.3,29.78,SE,132,2.0,8.0,94,0.00,,---,0.01,VWS V14.01,2013-08-02 13:16:00,
2013-08-02 09:31:00,67.2,64.8,29.78,SE,134,4.0,6.0,92,0.00,,---,0.01,VWS V14.01,2013-08-02 13:31:00,
2013-08-02 09:46:00,68.4,65.7,29.78,South,177,6.0,8.0,91,0.00,,---,0.01,VWS V14.01,2013-08-02 13:46:00,
2013-08-02 10:01:00,69.0,65.6,29.78,SSW,202,2.0,12.0,89,0.00,,---,0.01,VWS V14.01,2013-08-02 14:01:00,
2013-08-02 10:16:00,67.4,65.0,29.80,SW,224,4.0,10.0,92,0.02,,---,0.03,VWS V14.01,2013-08-02 14:16:00,
2013-08-02 10:31:00,67.0,65.2,29.80,SSW,210,4.0,6.0,94,0.04,,---,0.05,VWS V14.01,2013-08-02 14:31:00,
2013-08-02 10:46:00,67.0,65.8,29.78,SSW,213,3.0,10.0,96,0.12,,---,0.13,VWS V14.01,2013-08-02 14:46:00,
2013-08-02 11:01:00,67.6,66.4,29.78,SSW,213,3.0,9.0,96,0.13,,---,0.14,VWS V14.01,2013-08-02 15:01:00,
2013-08-02 11:16:00,67.8,66.6,29.78,SSW,196,6.0,10.0,96,0.14,,---,0.15,VWS V14.01,2013-08-02 15:16:00,
2013-08-02 11:31:00,68.2,67.0,29.78,SSW,209,4.0,11.0,96,0.12,,---,0.15,VWS V14.01,2013-08-02 15:31:00,
2013-08-02 11:46:00,68.2,67.0,29.78,SSW,205,5.0,10.0,96,0.10,,---,0.15,VWS V14.01,2013-08-02 15:46:00,
2013-08-02 12:01:00,69.1,68.2,29.78,SSW,194,6.0,10.0,97,0.02,,---,0.15,VWS V14.01,2013-08-02 16:01:00,
2013-08-02 12:16:00,70.2,69.0,29.78,SSW,200,6.0,13.0,96,0.01,,---,0.15,VWS V14.01,2013-08-02 16:16:00,
2013-08-02 12:31:00,71.8,70.0,29.78,SSW,213,3.0,8.0,94,0.00,,---,0.15,VWS V14.01,2013-08-02 16:31:00,
2013-08-02 12:46:00,74.5,71.7,29.78,WSW,247,6.0,12.0,91,0.00,,---,0.15,VWS V14.01,2013-08-02 16:46:00,
2013-08-02 13:01:00,75.0,71.5,29.77,WSW,250,8.0,12.0,89,0.00,,---,0.15,VWS V14.01,2013-08-02 17:01:00,
2013-08-02 13:16:00,76.0,71.9,29.77,West,267,9.0,13.0,87,0.00,,---,0.15,VWS V14.01,2013-08-02 17:16:00,
2013-08-02 13:31:00,75.9,71.8,29.78,WSW,242,7.0,14.0,87,0.00,,---,0.15,VWS V14.01,2013-08-02 17:31:00,
2013-08-02 13:46:00,76.7,72.2,29.77,WSW,242,5.0,15.0,86,0.00,,---,0.15,VWS V14.01,2013-08-02 17:46:00,
2013-08-02 14:01:00,77.6,72.4,29.77,SW,232,2.0,11.0,84,0.00,,---,0.15,VWS V14.01,2013-08-02 18:01:00,
2013-08-02 14:16:00,77.8,72.6,29.78,SW,229,6.0,13.0,84,0.00,,---,0.15,VWS V14.01,2013-08-02 18:16:00,
2013-08-02 14:31:00,78.5,72.6,29.78,WSW,238,5.0,11.0,82,0.00,,---,0.15,VWS V14.01,2013-08-02 18:31:00,
2013-08-02 14:46:00,77.4,72.5,29.78,SSW,208,7.0,14.0,85,0.00,,---,0.15,VWS V14.01,2013-08-02 18:46:00,
2013-08-02 15:01:00,77.4,72.5,29.78,WSW,247,10.0,11.0,85,0.00,,---,0.15,VWS V14.01,2013-08-02 19:01:00,
2013-08-02 15:16:00,77.8,72.9,29.78,SSW,208,8.0,11.0,85,0.00,,---,0.15,VWS V14.01,2013-08-02 19:16:00,
2013-08-02 15:31:00,78.2,73.0,29.78,SW,227,5.0,12.0,84,0.00,,---,0.15,VWS V14.01,2013-08-02 19:31:00,
2013-08-02 15:46:00,79.6,73.3,29.77,SW,221,4.0,10.0,81,0.00,,---,0.15,VWS V14.01,2013-08-02 19:46:00,
2013-08-02 16:01:00,79.5,72.4,29.77,SW,224,5.0,13.0,79,0.00,,---,0.15,VWS V14.01,2013-08-02 20:01:00,
2013-08-02 16:16:00,78.8,72.1,29.77,SW,230,6.0,11.0,80,0.00,,---,0.15,VWS V14.01,2013-08-02 20:16:00,
2013-08-02 16:31:00,78.9,71.5,29.78,WSW,254,5.0,16.0,78,0.00,,---,0.15,VWS V14.01,2013-08-02 20:31:00,
2013-08-02 16:46:00,78.0,71.0,29.78,West,275,12.0,17.0,79,0.00,,---,0.15,VWS V14.01,2013-08-02 20:46:00,
2013-08-02 17:01:00,78.2,71.5,29.78,SW,229,5.0,18.0,80,0.00,,---,0.15,VWS V14.01,2013-08-02 21:01:00,
2013-08-02 17:16:00,78.5,70.3,29.77,WSW,246,8.0,19.0,76,0.00,,---,0.15,VWS V14.01,2013-08-02 21:16:00,
2013-08-02 17:31:00,77.9,68.9,29.77,WSW,254,9.0,20.0,74,0.00,,---,0.15,VWS V14.01,2013-08-02 21:31:00,
2013-08-02 17:46:00,77.6,69.1,29.78,South,190,12.0,21.0,75,0.00,,---,0.15,VWS V14.01,2013-08-02 21:46:00,
2013-08-02 18:01:00,77.3,69.9,29.78,SW,234,5.0,20.0,78,0.00,,---,0.15,VWS V14.01,2013-08-02 22:01:00,
2013-08-02 18:16:00,77.3,69.9,29.78,WSW,249,12.0,18.0,78,0.00,,---,0.15,VWS V14.01,2013-08-02 22:16:00,
2013-08-02 18:31:00,76.9,68.8,29.78,WSW,257,9.0,24.0,76,0.00,,---,0.15,VWS V14.01,2013-08-02 22:31:00,
2013-08-02 18:46:00,76.4,68.7,29.80,WSW,240,11.0,24.0,77,0.00,,---,0.15,VWS V14.01,2013-08-02 22:46:00,
2013-08-02 19:01:00,76.2,68.5,29.80,WSW,257,14.0,23.0,77,0.00,,---,0.15,VWS V14.01,2013-08-02 23:01:00,
2013-08-02 19:16:00,76.0,67.9,29.80,WSW,254,18.0,21.0,76,0.00,,---,0.15,VWS V14.01,2013-08-02 23:16:00,
2013-08-02 19:31:00,75.6,69.0,29.80,WSW,255,7.0,20.0,80,0.00,,---,0.15,VWS V14.01,2013-08-02 23:31:00,
2013-08-02 19:46:00,74.7,69.2,29.80,SW,236,8.0,20.0,83,0.00,,---,0.15,VWS V14.01,2013-08-02 23:46:00,
2013-08-02 20:01:00,73.9,69.1,29.81,SW,219,4.0,20.0,85,0.00,,---,0.15,VWS V14.01,2013-08-03 00:01:00,
2013-08-02 20:16:00,73.8,69.0,29.82,SW,215,12.0,24.0,85,0.00,,---,0.15,VWS V14.01,2013-08-03 00:16:00,
2013-08-02 20:31:00,73.8,69.0,29.82,SW,229,9.0,23.0,85,0.00,,---,0.15,VWS V14.01,2013-08-03 00:31:00,
2013-08-02 20:46:00,73.5,68.4,29.82,SW,236,11.0,21.0,84,0.00,,---,0.15,VWS V14.01,2013-08-03 00:46:00,
2013-08-02 21:01:00,73.3,68.9,29.83,WSW,248,8.0,20.0,86,0.00,,---,0.15,VWS V14.01,2013-08-03 01:01:00,
2013-08-02 21:16:00,73.0,68.9,29.83,WSW,246,6.0,15.0,87,0.00,,---,0.15,VWS V14.01,2013-08-03 01:16:00,
2013-08-02 21:31:00,73.0,68.9,29.83,WSW,255,10.0,13.0,87,0.00,,---,0.15,VWS V14.01,2013-08-03 01:31:00,
2013-08-02 21:46:00,73.0,68.6,29.84,West,271,7.0,18.0,86,0.00,,---,0.15,VWS V14.01,2013-08-03 01:46:00,
2013-08-02 22:01:00,72.9,68.5,29.85,West,273,11.0,15.0,86,0.00,,---,0.15,VWS V14.01,2013-08-03 02:01:00,
2013-08-02 22:16:00,73.0,68.2,29.85,SSW,205,11.0,20.0,85,0.00,,---,0.15,VWS V14.01,2013-08-03 02:16:00,
2013-08-02 22:31:00,73.0,68.2,29.86,WSW,247,13.0,20.0,85,0.00,,---,0.15,VWS V14.01,2013-08-03 02:31:00,
2013-08-02 22:46:00,73.1,68.7,29.85,West,265,10.0,18.0,86,0.00,,---,0.15,VWS V14.01,2013-08-03 02:46:00,
2013-08-02 23:01:00,73.3,69.2,29.86,West,266,8.0,19.0,87,0.00,,---,0.15,VWS V14.01,2013-08-03 03:01:00,
2013-08-02 23:16:00,73.0,69.2,29.85,SW,221,6.0,16.0,88,0.00,,---,0.15,VWS V14.01,2013-08-03 03:16:00,
2013-08-02 23:31:00,72.5,69.1,29.85,SW,227,6.0,15.0,89,0.00,,---,0.15,VWS V14.01,2013-08-03 03:31:00,
2013-08-02 23:46:00,72.5,69.1,29.85,SW,221,7.0,17.0,89,0.00,,---,0.15,VWS V14.01,2013-08-03 03:46:00,